カタログに戻る

STARLINK-11185

運用中通信VLEO
NORAD 62588·PAYLOAD·🇺🇸 United States

打ち上げ Jan 13, 2025 から Cape Canaveral Space Force Station

Loading…

次のパス (今後24時間)

TLE

最新Source: CelesTrak SupGP

元期: Sep 15, 2026, 02:58 UTC

1 62588C 25008B   26258.12409722 -.00077361  00000+0 -60040-3 0  2580
2 62588  43.0010  64.0735 0001805 272.1390 319.6317 15.70894846    15

AllMySatでSTARLINK-11185をリアルタイム追跡

Download on the App Store